Time,TemperatureF,DewpointF,PressureIn,WindDirection,WindDirectionDegrees,WindSpeedMPH,WindSpeedGustMPH,Humidity,HourlyPrecipIn,Conditions,Clouds,dailyrainin,SoftwareType,DateUTC
2013-01-30 00:02:00,16.0,12.0,-100.00,NW,310,9.0,16.0,85,0.00,,,0.00,,2013-01-30 06:02:00,
2013-01-30 00:11:00,16.0,12.0,-100.00,NNW,330,7.0,12.0,84,0.00,,,0.00,,2013-01-30 06:11:00,
2013-01-30 00:21:00,15.0,12.0,-100.00,NW,310,5.0,12.0,84,0.00,,,0.00,,2013-01-30 06:21:00,
2013-01-30 00:32:00,15.0,10.0,-100.00,NNW,335,7.0,12.0,84,0.00,,,0.00,,2013-01-30 06:32:00,
2013-01-30 00:41:00,15.0,10.0,-100.00,NW,305,6.0,14.0,83,0.00,,,0.00,,2013-01-30 06:41:00,
2013-01-30 00:51:00,14.0,10.0,-100.00,NW,320,6.0,12.0,82,0.00,,,0.00,,2013-01-30 06:51:00,
2013-01-30 01:02:00,14.0,10.0,-100.00,WNW,300,4.0,9.0,82,0.00,,,0.00,,2013-01-30 07:02:00,
2013-01-30 01:11:00,14.0,10.0,-100.00,NW,315,6.0,12.0,82,0.00,,,0.00,,2013-01-30 07:11:00,
2013-01-30 01:21:00,14.0,10.0,-100.00,NW,325,5.0,9.0,83,0.00,,,0.00,,2013-01-30 07:21:00,
2013-01-30 01:31:00,13.0,9.0,-100.00,NW,310,5.0,14.0,83,0.00,,,0.00,,2013-01-30 07:31:00,
2013-01-30 01:41:00,13.0,9.0,-100.00,NW,310,9.0,17.0,82,0.00,,,0.00,,2013-01-30 07:41:00,
2013-01-30 01:52:00,12.0,7.0,-100.00,NW,325,9.0,17.0,81,0.00,,,0.00,,2013-01-30 07:52:00,
2013-01-30 02:01:00,12.0,7.0,-100.00,NW,315,6.0,16.0,81,0.00,,,0.00,,2013-01-30 08:01:00,
2013-01-30 02:11:00,12.0,7.0,-100.00,WNW,300,6.0,16.0,81,0.00,,,0.00,,2013-01-30 08:11:00,
2013-01-30 02:21:00,12.0,7.0,-100.00,NW,305,7.0,12.0,81,0.00,,,0.00,,2013-01-30 08:21:00,
2013-01-30 02:32:00,11.0,7.0,-100.00,NW,310,5.0,16.0,81,0.00,,,0.00,,2013-01-30 08:32:00,
2013-01-30 02:42:00,11.0,7.0,-100.00,NW,310,9.0,16.0,81,0.00,,,0.00,,2013-01-30 08:42:00,
2013-01-30 02:52:00,11.0,7.0,-100.00,NW,325,6.0,10.0,81,0.00,,,0.00,,2013-01-30 08:52:00,
2013-01-30 03:01:00,11.0,7.0,-100.00,NW,325,4.0,9.0,81,0.00,,,0.00,,2013-01-30 09:01:00,
2013-01-30 03:11:00,11.0,7.0,-100.00,NW,310,5.0,11.0,81,0.00,,,0.00,,2013-01-30 09:11:00,
2013-01-30 03:21:00,11.0,7.0,-100.00,NW,320,5.0,9.0,81,0.00,,,0.00,,2013-01-30 09:21:00,
2013-01-30 03:32:00,11.0,7.0,-100.00,NW,315,4.0,9.0,81,0.00,,,0.00,,2013-01-30 09:32:00,
2013-01-30 03:41:00,11.0,7.0,-100.00,NNW,335,3.0,11.0,82,0.00,,,0.00,,2013-01-30 09:41:00,
2013-01-30 03:51:00,11.0,7.0,-100.00,NW,310,4.0,7.0,82,0.00,,,0.00,,2013-01-30 09:51:00,
2013-01-30 04:01:00,11.0,7.0,-100.00,NW,305,8.0,18.0,82,0.00,,,0.00,,2013-01-30 10:01:00,
2013-01-30 04:11:00,11.0,7.0,-100.00,NW,310,8.0,16.0,81,0.00,,,0.00,,2013-01-30 10:11:00,
2013-01-30 04:21:00,10.0,5.0,-100.00,NW,325,6.0,12.0,81,0.00,,,0.00,,2013-01-30 10:21:00,
2013-01-30 04:31:00,10.0,5.0,-100.00,NW,325,6.0,11.0,81,0.00,,,0.00,,2013-01-30 10:31:00,
2013-01-30 04:41:00,10.0,5.0,-100.00,NW,310,2.0,8.0,81,0.00,,,0.00,,2013-01-30 10:41:00,
2013-01-30 04:52:00,10.0,5.0,-100.00,NW,315,7.0,11.0,80,0.00,,,0.00,,2013-01-30 10:52:00,
2013-01-30 05:02:00,10.0,5.0,-100.00,NW,305,5.0,13.0,80,0.00,,,0.00,,2013-01-30 11:02:00,
2013-01-30 05:11:00,10.0,5.0,-100.00,NW,310,5.0,11.0,80,0.00,,,0.00,,2013-01-30 11:11:00,
2013-01-30 05:22:00,9.0,5.0,-100.00,NW,310,7.0,12.0,80,0.00,,,0.00,,2013-01-30 11:22:00,
2013-01-30 05:32:00,9.0,5.0,-100.00,WNW,300,7.0,12.0,80,0.00,,,0.00,,2013-01-30 11:32:00,
2013-01-30 05:42:00,9.0,3.0,-100.00,NW,305,8.0,14.0,80,0.00,,,0.00,,2013-01-30 11:42:00,
2013-01-30 05:52:00,9.0,3.0,-100.00,NW,315,9.0,15.0,80,0.00,,,0.00,,2013-01-30 11:52:00,
2013-01-30 06:02:00,8.0,3.0,-100.00,NW,315,6.0,14.0,79,0.00,,,0.00,,2013-01-30 12:02:00,
2013-01-30 06:12:00,8.0,3.0,-100.00,NW,310,9.0,15.0,79,0.00,,,0.00,,2013-01-30 12:12:00,
2013-01-30 06:22:00,8.0,3.0,-100.00,NW,315,7.0,12.0,79,0.00,,,0.00,,2013-01-30 12:22:00,
2013-01-30 06:32:00,8.0,3.0,-100.00,WNW,300,6.0,16.0,79,0.00,,,0.00,,2013-01-30 12:32:00,
2013-01-30 06:42:00,8.0,3.0,-100.00,NW,315,7.0,18.0,79,0.00,,,0.00,,2013-01-30 12:42:00,
2013-01-30 07:02:00,7.0,1.0,-100.00,NW,305,7.0,12.0,79,0.00,,,0.00,,2013-01-30 13:02:00,
2013-01-30 07:12:00,7.0,1.0,-100.00,NW,315,6.0,12.0,79,0.00,,,0.00,,2013-01-30 13:12:00,
2013-01-30 07:23:00,7.0,1.0,-100.00,NW,305,7.0,14.0,79,0.00,,,0.00,,2013-01-30 13:23:00,
2013-01-30 07:32:00,7.0,1.0,-100.00,WNW,295,7.0,12.0,79,0.00,,,0.00,,2013-01-30 13:32:00,
2013-01-30 07:42:00,7.0,1.0,-100.00,NW,310,7.0,13.0,79,0.00,,,0.00,,2013-01-30 13:42:00,
2013-01-30 07:52:00,6.0,1.0,-100.00,NW,310,4.0,9.0,79,0.00,,,0.00,,2013-01-30 13:52:00,
2013-01-30 08:02:00,6.0,1.0,-100.00,NW,310,7.0,12.0,79,0.00,,,0.00,,2013-01-30 14:02:00,
2013-01-30 08:12:00,6.0,1.0,-100.00,NNW,340,6.0,11.0,79,0.00,,,0.00,,2013-01-30 14:12:00,
2013-01-30 08:22:00,6.0,1.0,-100.00,North,350,4.0,9.0,79,0.00,,,0.00,,2013-01-30 14:22:00,
2013-01-30 08:32:00,6.0,1.0,-100.00,NW,310,6.0,11.0,79,0.00,,,0.00,,2013-01-30 14:32:00,
2013-01-30 08:42:00,6.0,1.0,-100.00,NW,305,4.0,12.0,79,0.00,,,0.00,,2013-01-30 14:42:00,
2013-01-30 08:52:00,7.0,1.0,-100.00,NW,315,6.0,11.0,79,0.00,,,0.00,,2013-01-30 14:52:00,
2013-01-30 09:03:00,7.0,1.0,-100.00,NW,325,6.0,13.0,79,0.00,,,0.00,,2013-01-30 15:03:00,
2013-01-30 09:12:00,7.0,1.0,-100.00,NW,315,4.0,14.0,79,0.00,,,0.00,,2013-01-30 15:12:00,
2013-01-30 09:23:00,7.0,1.0,-100.00,NW,315,10.0,14.0,79,0.00,,,0.00,,2013-01-30 15:23:00,
2013-01-30 09:33:00,7.0,1.0,-100.00,NW,310,7.0,16.0,79,0.00,,,0.00,,2013-01-30 15:33:00,
2013-01-30 09:43:00,7.0,1.0,-100.00,NW,310,6.0,10.0,78,0.00,,,0.00,,2013-01-30 15:43:00,
2013-01-30 09:52:00,7.0,1.0,-100.00,NW,320,9.0,14.0,77,0.00,,,0.00,,2013-01-30 15:52:00,
2013-01-30 10:03:00,7.0,1.0,-100.00,NW,305,7.0,14.0,77,0.00,,,0.00,,2013-01-30 16:03:00,
2013-01-30 10:12:00,7.0,1.0,-100.00,NW,310,6.0,12.0,77,0.00,,,0.00,,2013-01-30 16:12:00,
2013-01-30 10:23:00,7.0,1.0,-100.00,NW,315,7.0,13.0,76,0.00,,,0.00,,2013-01-30 16:23:00,
2013-01-30 10:32:00,7.0,1.0,-100.00,NW,315,11.0,15.0,76,0.00,,,0.00,,2013-01-30 16:32:00,
2013-01-30 10:42:00,8.0,1.0,-100.00,WNW,300,7.0,15.0,76,0.00,,,0.00,,2013-01-30 16:42:00,
2013-01-30 10:52:00,8.0,1.0,-100.00,NW,310,10.0,15.0,75,0.00,,,0.00,,2013-01-30 16:52:00,
2013-01-30 11:02:00,8.0,1.0,-100.00,WNW,290,6.0,9.0,75,0.00,,,0.00,,2013-01-30 17:02:00,
2013-01-30 11:12:00,8.0,1.0,-100.00,WNW,300,7.0,12.0,74,0.00,,,0.00,,2013-01-30 17:12:00,
2013-01-30 11:22:00,8.0,1.0,-100.00,NW,305,7.0,15.0,73,0.00,,,0.00,,2013-01-30 17:22:00,
2013-01-30 11:32:00,8.0,1.0,-100.00,WNW,300,7.0,12.0,73,0.00,,,0.00,,2013-01-30 17:32:00,
2013-01-30 11:42:00,9.0,1.0,-100.00,NW,315,4.0,12.0,72,0.00,,,0.00,,2013-01-30 17:42:00,
2013-01-30 11:53:00,9.0,1.0,-100.00,NW,305,7.0,11.0,71,0.00,,,0.00,,2013-01-30 17:53:00,
2013-01-30 12:02:00,9.0,1.0,-100.00,NW,305,6.0,11.0,71,0.00,,,0.00,,2013-01-30 18:02:00,
2013-01-30 12:12:00,10.0,1.0,-100.00,NW,310,6.0,11.0,70,0.00,,,0.00,,2013-01-30 18:12:00,
2013-01-30 12:22:00,9.0,1.0,-100.00,WNW,295,7.0,14.0,70,0.00,,,0.00,,2013-01-30 18:22:00,
2013-01-30 12:33:00,10.0,1.0,-100.00,NW,305,7.0,12.0,70,0.00,,,0.00,,2013-01-30 18:33:00,
2013-01-30 12:42:00,10.0,3.0,-100.00,NW,315,6.0,13.0,69,0.00,,,0.00,,2013-01-30 18:42:00,
2013-01-30 12:52:00,9.0,1.0,-100.00,NW,305,7.0,14.0,69,0.00,,,0.00,,2013-01-30 18:52:00,
2013-01-30 13:02:00,9.0,1.0,-100.00,NW,310,10.0,13.0,69,0.00,,,0.00,,2013-01-30 19:02:00,
2013-01-30 13:12:00,10.0,1.0,-100.00,NW,315,6.0,15.0,69,0.00,,,0.00,,2013-01-30 19:12:00,
2013-01-30 13:22:00,10.0,1.0,-100.00,NNW,330,7.0,11.0,68,0.00,,,0.00,,2013-01-30 19:22:00,
2013-01-30 13:32:00,10.0,1.0,-100.00,NW,315,6.0,12.0,68,0.00,,,0.00,,2013-01-30 19:32:00,
2013-01-30 13:42:00,10.0,1.0,-100.00,WNW,285,7.0,14.0,68,0.00,,,0.00,,2013-01-30 19:42:00,
2013-01-30 13:52:00,10.0,1.0,-100.00,NW,310,5.0,13.0,69,0.00,,,0.00,,2013-01-30 19:52:00,
2013-01-30 14:03:00,11.0,3.0,-100.00,WNW,295,6.0,9.0,68,0.00,,,0.00,,2013-01-30 20:03:00,
2013-01-30 14:11:00,11.0,1.0,-100.00,NW,305,7.0,11.0,67,0.00,,,0.00,,2013-01-30 20:11:00,
2013-01-30 14:22:00,10.0,1.0,-100.00,NW,320,9.0,14.0,66,0.00,,,0.00,,2013-01-30 20:22:00,
2013-01-30 14:33:00,10.0,1.0,-100.00,WNW,295,9.0,15.0,67,0.00,,,0.00,,2013-01-30 20:33:00,
2013-01-30 14:42:00,10.0,1.0,-100.00,West,275,9.0,14.0,67,0.00,,,0.00,,2013-01-30 20:42:00,
2013-01-30 14:52:00,10.0,1.0,-100.00,NW,315,7.0,14.0,67,0.00,,,0.00,,2013-01-30 20:52:00,
2013-01-30 15:03:00,11.0,1.0,-100.00,NW,305,8.0,13.0,67,0.00,,,0.00,,2013-01-30 21:03:00,
2013-01-30 15:12:00,11.0,1.0,-100.00,West,265,7.0,14.0,67,0.00,,,0.00,,2013-01-30 21:12:00,
2013-01-30 15:22:00,11.0,1.0,-100.00,WNW,300,9.0,14.0,67,0.00,,,0.00,,2013-01-30 21:22:00,
2013-01-30 15:32:00,10.0,1.0,-100.00,WNW,300,11.0,17.0,68,0.00,,,0.00,,2013-01-30 21:32:00,
2013-01-30 15:42:00,9.0,1.0,-100.00,WNW,285,9.0,16.0,68,0.00,,,0.00,,2013-01-30 21:42:00,
2013-01-30 15:52:00,9.0,1.0,-100.00,WNW,300,9.0,16.0,68,0.00,,,0.00,,2013-01-30 21:52:00,
2013-01-30 16:02:00,9.0,1.0,-100.00,NW,305,7.0,14.0,68,0.00,,,0.00,,2013-01-30 22:02:00,
2013-01-30 16:12:00,9.0,1.0,-100.00,NW,305,5.0,12.0,68,0.00,,,0.00,,2013-01-30 22:12:00,
2013-01-30 16:22:00,9.0,1.0,-100.00,WNW,300,7.0,11.0,69,0.00,,,0.00,,2013-01-30 22:22:00,
2013-01-30 16:32:00,8.0,1.0,-100.00,WNW,300,6.0,13.0,69,0.00,,,0.00,,2013-01-30 22:32:00,
2013-01-30 16:42:00,8.0,1.0,-100.00,WNW,295,6.0,11.0,70,0.00,,,0.00,,2013-01-30 22:42:00,
2013-01-30 16:52:00,8.0,0.0,-100.00,WNW,290,7.0,12.0,70,0.00,,,0.00,,2013-01-30 22:52:00,
2013-01-30 17:02:00,8.0,0.0,-100.00,WNW,290,6.0,12.0,71,0.00,,,0.00,,2013-01-30 23:02:00,
2013-01-30 17:12:00,8.0,0.0,-100.00,NW,305,6.0,12.0,71,0.00,,,0.00,,2013-01-30 23:12:00,
2013-01-30 17:22:00,7.0,0.0,-100.00,WNW,295,7.0,14.0,72,0.00,,,0.00,,2013-01-30 23:22:00,
2013-01-30 17:32:00,7.0,0.0,-100.00,NW,305,9.0,14.0,73,0.00,,,0.00,,2013-01-30 23:32:00,
2013-01-30 17:42:00,7.0,0.0,-100.00,WNW,300,7.0,18.0,73,0.00,,,0.00,,2013-01-30 23:42:00,
2013-01-30 17:52:00,6.0,0.0,-100.00,WNW,295,6.0,15.0,73,0.00,,,0.00,,2013-01-30 23:52:00,
2013-01-30 18:02:00,6.0,0.0,-100.00,NW,305,6.0,12.0,73,0.00,,,0.00,,2013-01-31 00:02:00,
2013-01-30 18:11:00,6.0,0.0,-100.00,WNW,300,6.0,12.0,73,0.00,,,0.00,,2013-01-31 00:11:00,
2013-01-30 18:21:00,6.0,0.0,-100.00,WNW,295,5.0,12.0,74,0.00,,,0.00,,2013-01-31 00:21:00,
2013-01-30 18:32:00,6.0,0.0,-100.00,NW,305,5.0,12.0,74,0.00,,,0.00,,2013-01-31 00:32:00,
2013-01-30 18:42:00,6.0,0.0,-100.00,NW,305,7.0,11.0,75,0.00,,,0.00,,2013-01-31 00:42:00,
2013-01-30 18:52:00,5.0,0.0,-100.00,NW,305,7.0,17.0,75,0.00,,,0.00,,2013-01-31 00:52:00,
2013-01-30 19:02:00,5.0,0.0,-100.00,NW,305,4.0,9.0,75,0.00,,,0.00,,2013-01-31 01:02:00,
2013-01-30 19:11:00,5.0,0.0,-100.00,NW,315,5.0,9.0,75,0.00,,,0.00,,2013-01-31 01:11:00,
2013-01-30 19:21:00,4.0,-2.0,-100.00,NW,305,6.0,12.0,75,0.00,,,0.00,,2013-01-31 01:21:00,
2013-01-30 19:31:00,4.0,-2.0,-100.00,NW,310,4.0,9.0,75,0.00,,,0.00,,2013-01-31 01:31:00,
2013-01-30 19:41:00,4.0,-2.0,-100.00,NW,320,6.0,9.0,76,0.00,,,0.00,,2013-01-31 01:41:00,
2013-01-30 19:52:00,4.0,-2.0,-100.00,WNW,300,6.0,11.0,76,0.00,,,0.00,,2013-01-31 01:52:00,
2013-01-30 20:01:00,3.0,-2.0,-100.00,NW,305,8.0,13.0,76,0.00,,,0.00,,2013-01-31 02:01:00,
2013-01-30 20:11:00,3.0,-2.0,-100.00,WNW,295,7.0,13.0,76,0.00,,,0.00,,2013-01-31 02:11:00,
2013-01-30 20:21:00,2.0,-4.0,-100.00,WNW,300,9.0,12.0,76,0.00,,,0.00,,2013-01-31 02:21:00,
2013-01-30 20:32:00,2.0,-4.0,-100.00,WNW,300,9.0,14.0,76,0.00,,,0.00,,2013-01-31 02:32:00,
2013-01-30 20:41:00,2.0,-4.0,-100.00,WNW,300,9.0,14.0,76,0.00,,,0.00,,2013-01-31 02:41:00,
2013-01-30 20:52:00,2.0,-4.0,-100.00,WNW,300,9.0,14.0,76,0.00,,,0.00,,2013-01-31 02:52:00,
2013-01-30 21:02:00,1.0,-4.0,-100.00,WNW,285,7.0,13.0,78,0.00,,,0.00,,2013-01-31 03:02:00,
2013-01-30 21:11:00,1.0,-4.0,-100.00,NW,305,7.0,15.0,78,0.00,,,0.00,,2013-01-31 03:11:00,
2013-01-30 21:21:00,0.0,-4.0,-100.00,WNW,300,5.0,11.0,78,0.00,,,0.00,,2013-01-31 03:21:00,
2013-01-30 21:32:00,0.0,-4.0,-100.00,WNW,290,7.0,14.0,78,0.00,,,0.00,,2013-01-31 03:32:00,
2013-01-30 21:41:00,1.0,-4.0,-100.00,WNW,295,4.0,10.0,78,0.00,,,0.00,,2013-01-31 03:41:00,
2013-01-30 21:51:00,0.0,-4.0,-100.00,WNW,290,6.0,12.0,78,0.00,,,0.00,,2013-01-31 03:51:00,
2013-01-30 22:02:00,1.0,-4.0,-100.00,WNW,300,6.0,11.0,78,0.00,,,0.00,,2013-01-31 04:02:00,
2013-01-30 22:11:00,1.0,-4.0,-100.00,NW,305,6.0,11.0,78,0.00,,,0.00,,2013-01-31 04:11:00,
2013-01-30 22:22:00,1.0,-4.0,-100.00,WNW,300,6.0,11.0,78,0.00,,,0.00,,2013-01-31 04:22:00,
2013-01-30 22:31:00,1.0,-4.0,-100.00,NW,310,6.0,12.0,78,0.00,,,0.00,,2013-01-31 04:31:00,
2013-01-30 22:41:00,1.0,-4.0,-100.00,WNW,300,7.0,11.0,78,0.00,,,0.00,,2013-01-31 04:41:00,
2013-01-30 22:51:00,1.0,-4.0,-100.00,WNW,290,5.0,11.0,78,0.00,,,0.00,,2013-01-31 04:51:00,
2013-01-30 23:03:00,1.0,-4.0,-100.00,NW,305,7.0,11.0,77,0.00,,,0.00,,2013-01-31 05:03:00,
2013-01-30 23:11:00,1.0,-4.0,-100.00,WNW,295,10.0,16.0,77,0.00,,,0.00,,2013-01-31 05:11:00,
2013-01-30 23:22:00,1.0,-6.0,-100.00,WNW,300,7.0,13.0,76,0.00,,,0.00,,2013-01-31 05:22:00,
2013-01-30 23:31:00,1.0,-6.0,-100.00,WNW,300,7.0,13.0,76,0.00,,,0.00,,2013-01-31 05:31:00,
2013-01-30 23:41:00,0.0,-6.0,-100.00,NW,315,8.0,16.0,76,0.00,,,0.00,,2013-01-31 05:41:00,
2013-01-30 23:51:00,0.0,-6.0,-100.00,NW,315,8.0,16.0,76,0.00,,,0.00,,2013-01-31 05:51:00,